Weather History for Anoka County, MN

Change the Weather History Date:

Wednesday, October 17, 2012

  Actual Average Record
Temperature  
Mean Temperature 55 °F -  
Max Temperature 64 °F 55 °F 69 °F (1998)
Min Temperature 46 °F 37 °F 28 °F (1999)
Degree Days  
Heating Degree Days 10    
Growing Degree Days 5 (Base 50)    
Moisture  
Dew Point 47 °F    
Average Humidity 80    
Maximum Humidity 100    
Minimum Humidity 55    
Precipitation  
Precipitation 0.00 in - - ()
Sea Level Pressure  
Sea Level Pressure 29.27 in    
Wind  
Wind Speed 5 mph (South)    
Max Wind Speed 23 mph    
Max Gust Speed 29 mph    
Visibility 10 miles    
Events      
Averages and records for this station are not official NWS values.
T = Trace of Precipitation, MM = Missing Value Source: NWS Daily Summary

Daily Weather History Graph

Daily Weather History Graph

Search for Another Location

Airport:

Trip Planner

Search our weather history database for the weather conditions in past years. The results will help you decide how hot, cold, wet, or windy it might be!

Date:

Astronomy

Oct. 17, 2012 Rise Set
Actual Time 7:32 AM CDT 6:23 PM CDT
Civil Twilight 7:02 AM CDT 6:53 PM CDT
Nautical Twilight 6:28 AM CDT 7:27 PM CDT
Astronomical Twilight 5:53 AM CDT 8:01 PM CDT
Moon 10:15 AM CDT 7:51 PM CDT
Length of Visible Light 11h 50m
Length of Day
10h 51m
Waxing Crescent, 7% of the Moon is Illuminated
Oct 17
Waxing Crescent
Oct 21
First Quarter
Oct 29
Full
Nov 6
Last Quarter
Nov 13
New

Hourly Weather History & Observations

Time (CDT) Temp. Dew Point Humidity Pressure Visibility Wind Dir Wind Speed Gust Speed Precip Events Conditions
12:14 AM 50.0 °F 48.2 °F 94% 29.37 in 10.0 mi East 3.5 mph - N/A   Clear
12:34 AM 51.8 °F 48.2 °F 88% 29.36 in 10.0 mi ESE 3.5 mph - N/A   Clear
12:54 AM 51.8 °F 48.2 °F 88% 29.35 in 10.0 mi Calm Calm - N/A   Clear
1:14 AM 48.2 °F 46.4 °F 93% 29.34 in 10.0 mi Calm Calm - N/A   Clear
1:34 AM 50.0 °F 48.2 °F 94% 29.34 in 10.0 mi Calm Calm - N/A   Clear
1:54 AM 50.0 °F 48.2 °F 94% 29.34 in 10.0 mi Calm Calm - N/A   Clear
2:14 AM 50.0 °F 48.2 °F 94% 29.34 in 10.0 mi Calm Calm - N/A   Clear
2:34 AM 48.2 °F 46.4 °F 93% 29.33 in 7.0 mi Calm Calm - N/A   Clear
2:54 AM 46.4 °F 46.4 °F 100% 29.32 in 5.0 mi Calm Calm - N/A   Clear
3:14 AM 48.2 °F 46.4 °F 93% 29.32 in 7.0 mi Calm Calm - N/A   Clear
3:34 AM 48.2 °F 46.4 °F 93% 29.31 in 10.0 mi ESE 3.5 mph - N/A   Clear
3:54 AM 50.0 °F 48.2 °F 94% 29.30 in 7.0 mi SE 3.5 mph - N/A   Clear
4:14 AM 51.8 °F 48.2 °F 88% 29.30 in 10.0 mi SE 3.5 mph - N/A   Clear
4:34 AM 51.8 °F 48.2 °F 88% 29.29 in 10.0 mi East 3.5 mph - N/A   Clear
4:54 AM 51.8 °F 48.2 °F 88% 29.30 in 10.0 mi SE 3.5 mph - N/A   Clear
5:14 AM 51.8 °F 48.2 °F 88% 29.27 in 10.0 mi East 6.9 mph - N/A   Clear
5:34 AM 51.8 °F 48.2 °F 88% 29.25 in 10.0 mi East 6.9 mph - N/A   Clear
5:54 AM 51.8 °F 48.2 °F 88% 29.23 in 10.0 mi East 11.5 mph - N/A   Scattered Clouds
6:14 AM 53.6 °F 50.0 °F 88% 29.23 in 10.0 mi SE 6.9 mph - N/A   Overcast
6:34 AM 53.6 °F 48.2 °F 82% 29.24 in 10.0 mi SE 5.8 mph - N/A   Overcast
6:54 AM 53.6 °F 48.2 °F 82% 29.22 in 10.0 mi ESE 6.9 mph - N/A   Overcast
7:45 AM 55.4 °F 48.2 °F 77% 29.18 in 10.0 mi ESE 5.8 mph - N/A   Overcast
8:45 AM 57.2 °F 50.0 °F 77% 29.17 in 10.0 mi SE 8.1 mph - N/A   Overcast
9:45 AM 60.8 °F 50.0 °F 68% 29.15 in 10.0 mi SE 12.7 mph - N/A   Overcast
10:45 AM 62.6 °F 50.0 °F 63% 29.13 in 10.0 mi SSE 11.5 mph - N/A   Overcast
11:45 AM 64.4 °F 50.0 °F 59% 29.15 in 10.0 mi South 20.7 mph 27.6 mph N/A   Overcast
12:59 PM 59.0 °F 51.8 °F 77% 29.18 in 10.0 mi WSW 23.0 mph 28.8 mph N/A   Overcast
1:45 PM 55.4 °F 48.2 °F 77% 29.21 in 10.0 mi WSW 13.8 mph 28.8 mph N/A   Overcast
2:45 PM 57.2 °F 46.4 °F 67% 29.22 in 10.0 mi WSW 12.7 mph 23.0 mph N/A   Overcast
3:45 PM 59.0 °F 44.6 °F 59% 29.23 in 10.0 mi WSW 10.4 mph 16.1 mph N/A   Mostly Cloudy
4:59 PM 59.0 °F 42.8 °F 55% 29.24 in 10.0 mi WSW 11.5 mph - N/A   Mostly Cloudy
5:55 PM 57.2 °F 42.8 °F 59% 29.25 in 10.0 mi WSW 9.2 mph - N/A   Mostly Cloudy
6:45 PM 57.2 °F 41.0 °F 55% 29.26 in 10.0 mi SW 5.8 mph - N/A   Mostly Cloudy
7:45 PM 55.4 °F 44.6 °F 67% 29.27 in 10.0 mi WSW 12.7 mph 19.6 mph N/A   Mostly Cloudy
8:45 PM 51.8 °F 46.4 °F 82% 29.29 in 10.0 mi WSW 11.5 mph - N/A   Overcast
9:14 PM 51.8 °F 44.6 °F 76% 29.29 in 10.0 mi West 9.2 mph - N/A   Overcast
9:34 PM 51.8 °F 44.6 °F 76% 29.28 in 10.0 mi WSW 9.2 mph - N/A   Overcast
9:54 PM 50.0 °F 42.8 °F 76% 29.28 in 10.0 mi WSW 9.2 mph 17.3 mph N/A   Overcast
10:14 PM 50.0 °F 42.8 °F 76% 29.27 in 10.0 mi WSW 6.9 mph - N/A   Overcast
10:34 PM 50.0 °F 42.8 °F 76% 29.26 in 10.0 mi West 10.4 mph - N/A   Overcast
10:54 PM 50.0 °F 42.8 °F 76% 29.27 in 10.0 mi SW 8.1 mph - N/A   Overcast
11:14 PM 50.0 °F 42.8 °F 76% 29.26 in 10.0 mi WSW 6.9 mph - N/A   Overcast
11:34 PM 48.2 °F 42.8 °F 82% 29.26 in 10.0 mi WSW 6.9 mph - N/A   Overcast
11:54 PM 48.2 °F 42.8 °F 82% 29.25 in 10.0 mi WSW 4.6 mph - N/A   Overcast